Regional Weather Roundup
Issued by NWS

Home | Current Version | Previous Version | Text Only | Print | Product List | Glossary Off
Versions: 1 2 3 4 5 6 7 8 9 10 11 12 13 14 15 16 17 18 19 20 21 22 23 24 25 26 27

000
ASUS45 KBOU 190506
RWRCO

WEATHER ROUNDUP FOR COLORADO
NATIONAL WEATHER SERVICE DENVER/BOULDER CO
1100 PM MDT FRI APR 18 2014

NOTE: "FAIR" INDICATES FEW OR NO CLOUDS BELOW 12000 FEET WITH NO
SIGNIFICANT WEATHER AND/OR OBSTRUCTIONS TO VISIBILITY.

COZ001>005-013-030-031-190600-
...NORTHWEST COLORADO...

CITY           SKY/WX    TMP DP  RH WIND       PRES   REMARKS
CRAIG          CLOUDY    50  34  54 CALM      30.00R
HAYDEN         CLOUDY    52  28  40 SW6       30.03R
MEEKER         CLOUDY    58  23  26 W7        30.01R
MOUNT WERNER   CLOUDY    43  12  28 S17       30.20S
STEAMBOAT SPGS CLOUDY    48  22  37 E6        30.01S
WALDEN         MOCLDY    41  23  48 S5        30.06R
$$

COZ006>008-011-190600-
...WEST CENTRAL VALLEYS...

CITY           SKY/WX    TMP DP  RH WIND       PRES   REMARKS
GRAND JUNCTION CLOUDY    64  26  23 N5        29.95S
MONTROSE       CLOUDY    61  30  31 S6        30.04R
EAGLE          MOCLDY    57  28  33 SW12      30.07R
RIFLE          CLOUDY    64  25  22 S16       29.99R
DELTA          CLOUDY    68  28  22 NE14      29.98S
NUCLA            N/A     59  27  29 SW9       30.10R
$$

COZ017>023-064>068-190600-
...SOUTHWEST COLORADO...

CITY           SKY/WX    TMP DP  RH WIND       PRES   REMARKS
DURANGO        PTCLDY    53  26  35 SW5       30.10S
CORTEZ         MOCLDY    55  32  41 VRB5      30.09R
PAGOSA SPRINGS CLOUDY    54  27  35 CALM      30.15F
TELLURIDE      CLOUDY    45  32  61 CALM      30.22S
WOLF CREEK PAS CLOUDY    32  27  80 SW12G23   30.32S WCI  23
$$

COZ009-010-012-014-032>034-037-058>063-190600-
...CENTRAL COLORADO...

CITY           SKY/WX    TMP DP  RH WIND       PRES   REMARKS
ASPEN          MOCLDY    47  26  44 S3        30.12R
BUENA VISTA    PTCLDY    44  29  55 NW8       30.11S
COPPER MTN     PTCLDY    37  18  44 SW14G20   30.29S
BERTHOUD PASS  FAIR      32  23  69 W14G23    30.30F WCI  22
COTTONWOOD PAS PTCLDY    46  19  34 W12G18    30.19S
GUNNISON       MOCLDY    48  25  40 NW6       30.15F
KREMMLING      PTCLDY    43  27  52 S5        30.07R
LEADVILLE      PTCLDY    33  22  63 E8        30.20R WCI  26
MONARCH PASS   PTCLDY    34  23  64 W18       30.40F WCI  23
SALIDA         PTCLDY    51  25  36 S6        30.17R
SUNLIGHT       CLOUDY    37  32  81 SW3       30.26S
WILKERSON PASS CLEAR     37  19  48 W6        30.28S
$$

COZ069>075-190600-
...SAN LUIS VALLEY/SANGRE DE CRISTO MOUNTAINS...

CITY           SKY/WX    TMP DP  RH WIND       PRES   REMARKS
ALAMOSA        PTCLDY    52  28  39 W16       30.12R
LA VETA PASS   MOCLDY    43  21  42 SW14G30   30.20F
SAGUACHE       CLOUDY    50  25  37 NW7       30.12S
$$

COZ035-036-038>040-190600-
...NORTHERN COLORADO FRONT RANGE...

CITY           SKY/WX    TMP DP  RH WIND       PRES   REMARKS
DENVER INTL AP MOCLDY    61  30  31 SW5       29.90F
DMNS CITY PARK   N/A     62  31  31 S3        29.90S
AURORA         MOCLDY    54  32  43 S10       29.93S
FRONT RANGE AP NOT AVBL
ERIE MUNI ARPT MOCLDY    54  35  48 CALM      29.89S
BOULDER MUN AP MOCLDY    61  30  31 W5        29.89F
CENTENNIAL     PTCLDY    55  28  35 SW7       29.93S
BROOMFIELD     NOT AVBL
FORT COLLINS   CLOUDY    59  32  36 CALM      29.89S
LONGMONT       CLOUDY    57  35  43 SW6       29.89F
$$

COZ041-046-047-076>085-087-088-190600-
...PIKES PEAK/PALMER DIVIDE AND SOUTHERN FOOTHILLS...

CITY           SKY/WX    TMP DP  RH WIND       PRES   REMARKS
COLO. SPRINGS  PTCLDY    59  26  28 NW8       29.97S
A. F. ACADEMY  PTCLDY    56  25  30 NW7       29.99R
ELLICOTT       NOT AVBL
FALCON         PTCLDY    53  25  33 NW5       30.02S
FORT CARSON    PTCLDY    53  31  42 SE6       29.94S
LIMON          CLOUDY    45  33  63 N7        29.93F
MONUMENT HILL  PTCLDY    50  27  40 SW9       30.00S
TRINIDAD       CLOUDY    60  35  39 SW12      29.99F
$$

COZ042>045-048>051-090-091-190600-
...NORTHEAST COLORADO...

CITY           SKY/WX    TMP DP  RH WIND       PRES   REMARKS
GREELEY ARPT   CLOUDY    55  36  47 CALM      29.86S
AKRON          CLOUDY    57  39  51 S14       29.87F
BURLINGTON     MOCLDY    55  42  61 S23       29.91F
WRAY           CLOUDY    59  43  54 SE16G26   29.87F
STERLING       CLOUDY    63  41  45 S13       29.84F
HOLYOKE        CLOUDY    61  43  51 S15       29.88S
FORT MORGAN    CLOUDY    58  33  38 SE10      29.85F
$$

COZ086-089-092>099-190600-
...SOUTHEAST COLORADO...

CITY           SKY/WX    TMP DP  RH WIND       PRES   REMARKS
PUEBLO         PTCLDY    56  38  50 W10       29.88S
LA JUNTA       CLOUDY    67  37  33 SW21      29.87S
LAMAR          CLOUDY    64  40  41 S22       29.86F
SPRINGFIELD      N/A     58  39  49 S21       29.98S
$$



USA.gov is the U.S. government's official web portal to all federal, state and local government web resources and services.